Regional Weather Roundup
Issued by NWS San Angelo, TX

Home | Current Version | Previous Version | Text Only | Print | Product List | Glossary On
Versions: 1 2 3 4 5 6 7 8 9 10 11 12 13 14 15 16 17 18 19 20 21 22 23 24 25 26 27 28 29 30 31 32 33 34 35 36 37 38 39 40 41 42 43 44 45 46 47 48 49 50
000
ASUS44 KSJT 271310
RWRSJT
WEST CENTRAL TEXAS REGIONAL WEATHER ROUNDUP
NATIONAL WEATHER SERVICE SAN ANGELO TX
800 AM CDT WED AUG 27 2014

NOTE: "FAIR" INDICATES FEW OR NO CLOUDS BELOW 12,000 FEET WITH NO
SIGNIFICANT WEATHER AND/OR OBSTRUCTIONS TO VISIBILITY.

TXZ049-054-064>066-071>073-076>078-098-099-113-114-127-128-139-140-
154-155-168>170-271400
...LOCATIONS ACROSS WEST CENTRAL TEXAS...

CITY           SKY/WX    TMP DP  RH WIND       PRES   REMARKS
SAN ANGELO     CLEAR     73  64  73 CALM      30.08R
ABILENE        CLEAR     75  66  73 SE8       30.08R
DYESS AFB      CLEAR     75  68  77 SE6       30.07R
JUNCTION       CLEAR     73  68  84 CALM      30.07R
SWEETWATER     CLEAR     76  65  68 SE8       30.12S
BROWNWOOD      SUNNY     73  66  78 CALM      30.07R
COLEMAN        SUNNY     74  67  77 CALM      30.08R
SONORA         CLEAR     72  66  83 CALM      30.13R
OZONA          FAIR      68  59  73 CALM      30.12R
BRADY          CLEAR     73  66  78 SE3       30.08R
$$

TEXAS PANHANDLE/OKLAHOMA PANHANDLE

CITY           SKY/WX    TMP DP  RH WIND       PRES   REMARKS
AMARILLO       CLOUDY    67  65  93 E9        30.17R
BORGER         CLOUDY    69  65  86 E5        30.15R
CANADIAN       CLOUDY    71  70  96 E6        30.13R
DALHART        PTCLDY    66  63  90 S9        30.20R
DUMAS          CLOUDY    64  64  97 SE5       30.17R FOG
GUYMON         NOT AVBL
HEREFORD       PTSUNNY   68  67  95 CALM      30.19R
PAMPA          CLOUDY    67  65  94 E8        30.16S FOG
PERRYTON       CLOUDY    68  66  94 SE12      30.16R
$$

SOUTHERN PANHANDLE/SOUTH PLAINS/ROLLING PLAINS

CITY           SKY/WX    TMP DP  RH WIND       PRES   REMARKS
LUBBOCK        CLOUDY    73  63  70 SE10      30.13R
SNYDER         CLEAR     74  64  72 S6        30.11R
CHILDRESS      PTCLDY    77  65  66 SE3       30.11R
SEMINOLE       SUNNY     72  58  62 S5        30.15R
$$

PERMIAN BASIN

CITY           SKY/WX    TMP DP  RH WIND       PRES   REMARKS
MIDLAND        CLEAR     74  56  53 S6        30.11R
ODESSA         CLEAR     74  55  51 CALM      30.12R
WINK           CLEAR     76  56  49 SE12      30.08R
$$

FAR WEST/SOUTHWEST MOUNTAINS/TRANS PECOS

CITY           SKY/WX    TMP DP  RH WIND       PRES   REMARKS
ALPINE         SUNNY     63  55  73 SW7       30.25R
DRYDEN           N/A     78  65  63 N3        30.06R
EL PASO        CLOUDY    69  67  93 CALM      30.17R
FORT STOCKTON  CLEAR     69  57  65 S5        30.12R
GUADALUPE PASS CLOUDY    63  60  90 S10       30.27R
MARFA          CLEAR     57  54  88 N7        30.24R
PECOS          SUNNY     69  63  80 NW5       30.09R
$$

DALLAS/FORT WORTH METROPLEX

CITY           SKY/WX    TMP DP  RH WIND       PRES   REMARKS
DFW AIRPORT    SUNNY     79  71  76 SE5       30.05R
FTW MEACHAM    SUNNY     81  70  69 E6        30.05R
DAL-EXECUTIVE  SUNNY     78  71  79 CALM      30.05R
GRAND PRAIRIE  SUNNY     79  70  73 CALM      30.06R
ADDISON        SUNNY     81  70  69 SE5       30.06R
MESQUITE       SUNNY     73  72  94 CALM      30.05R
LANCASTER      SUNNY     74  68  80 CALM      30.06R
$$

NORTH CENTRAL TEXAS

CITY           SKY/WX    TMP DP  RH WIND       PRES   REMARKS
SHRMAN/DENISON SUNNY     74  70  85 E6        30.08R
GAINESVILLE    MOSUNNY   74  70  86 E5        30.10R
BRIDGEPORT     SUNNY     73  66  78 CALM      30.08R
DENTON         SUNNY     77  71  82 CALM      30.06R
WAXAHACHIE     SUNNY     75  69  83 CALM      30.06R
GRANBURY       SUNNY     76  68  75 CALM      30.06R
$$

WESTERN NORTH TEXAS

CITY           SKY/WX    TMP DP  RH WIND       PRES   REMARKS
WICHITA FALLS  SUNNY     74  67  78 E6        30.06R
VERNON         SUNNY     76  64  67 CALM      30.08R
BRECKENRIDGE   SUNNY     78  66  67 SE7       30.06R HAZE
COMANCHE       SUNNY     72  66  83 CALM      30.07R
$$

CENTRAL AND SOUTH CENTRAL TEXAS

CITY           SKY/WX    TMP DP  RH WIND       PRES   REMARKS
AUSTIN/BERGSTM MOSUNNY   76  72  87 CALM      30.02R
WACO           SUNNY     76  70  82 E3        30.03R
HILLSBORO      SUNNY     77  69  77 E7        30.05R
TEMPLE         SUNNY     75  64  69 CALM      30.03R
KILLEEN-GRAY   SUNNY     75  72  88 CALM      30.04R
FORT HOOD      SUNNY     79  71  76 CALM      30.04R
GEORGETOWN     SUNNY     75  70  83 CALM      30.04R
LAGO VISTA     FAIR      78  71  78 CALM      30.06R
SAN MARCOS     SUNNY     75  66  73 N3        30.03R
NEW BRAUNFELS  SUNNY     75  71  87 CALM      30.00R
RANDOLPH AFB   SUNNY     75  70  83 N3        30.02R
SAN ANTONIO    SUNNY     78  71  79 CALM      30.02R
STINSON        SUNNY     78  72  81 N3        29.99R
PLEASANTON     NOT AVBL
LA GRANGE      SUNNY     76  74  93 CALM      29.99R
GIDDINGS       SUNNY     75  72  88 CALM      30.05R
$$

EAST TEXAS

CITY           SKY/WX    TMP DP  RH WIND       PRES   REMARKS
PARIS          SUNNY     75  66  73 E7        30.07S
CLARKSVILLE    SUNNY     76  73  90 CALM      30.07R
TYLER          SUNNY     75  71  87 CALM      30.05R
LONGVIEW       SUNNY     74  70  87 CALM      30.04R
PALESTINE      SUNNY     74  71  88 CALM      30.05R
NACOGDOCHES    MOSUNNY   73  70  88 CALM      30.04R
$$

TEXAS HILL COUNTRY AND EDWARDS PLATEAU

CITY           SKY/WX    TMP DP  RH WIND       PRES   REMARKS
LLANO          SUNNY     75  70  83 CALM      30.08R
HORSESHOE BAY  FAIR      73  73 100 CALM      30.05R FOG
KERRVILLE      CLEAR     72  69  92 CALM      30.07R
FREDERICKSBRG  CLEAR     72  68  88 CALM      30.07R
ROCKSPRINGS    SUNNY     73  68  83 CALM      30.11R
HONDO          CLEAR     73  70  90 NE3       30.04R
UVALDE         SUNNY     75  71  87 E6        30.03R
DEL RIO        CLEAR     80  69  69 E6        30.01R
$$

SOUTHEAST TEXAS

CITY           SKY/WX    TMP DP  RH WIND       PRES   REMARKS
COLLEGE STN    SUNNY     77  70  79 NE5       30.01R
CALDWELL       SUNNY     75  72  88 CALM      30.04S
CROCKETT       SUNNY     73  72  94 NE5       30.06R
BRENHAM        SUNNY     77  73  88 N3        30.01R
HUNTSVILLE     SUNNY     73  71  93 CALM      30.02R
CONROE         SUNNY     74  71  91 N6        30.01R
HOUSTON BUSH   PTSUNNY   77  72  83 NE7       29.99R
HOUSTON HOBBY  MOSUNNY   80  72  76 NE8       29.98R
PERLAND        SUNNY     80  72  76 NE9       29.98R
WHARTON        SUNNY     76  73  91 N5        29.98R
$$

THE UPPER TEXAS COAST

CITY           SKY/WX    TMP DP  RH WIND       PRES   REMARKS
ORANGE         SUNNY     75  75 100 N3        30.00S
PORT ARTHUR    SUNNY     80  73  79 NE9       29.98S
GALVESTON      MOSUNNY   81  74  79 NE16      29.96S
ANGLETON       MOSUNNY   78  74  87 NE7       29.96R
BAY CITY       SUNNY     79  79 100 NE7       29.95S
$$

TEXAS COASTAL BEND, RIO GRANDE PLAINS DEEP SOUTH TEXAS

CITY           SKY/WX    TMP DP  RH WIND       PRES   REMARKS
VICTORIA       SUNNY     77  75  93 N6        29.97R
BEEVILLE       FAIR      76  74  95 N5        29.97R
ROCKPORT       SUNNY     80  75  84 N9        29.94R
PORT ARANSAS   SUNNY     82  76  82 N10       29.93S
PORT LAVACA    SUNNY     76  74  94 N6        29.95R FOG
CORPUS CHRISTI MOSUNNY   79  75  87 N6        29.94S
KINGSVILLE NAS MOSUNNY   78  75  90 N6        29.95R
COTULLA        CLEAR     78  70  76 E5        29.99R
LAREDO         CLEAR     79  73  81 E7        30.00R
BROWNSVILLE    SUNNY     79  76  90 NW6       29.93R
PORT ISABEL    MOSUNNY   80  74  81 NW7       29.93R
HEBBRONVILLE   SUNNY     76  72  85 N5        29.99R
MCALLEN        SUNNY     82  75  79 N3        29.94R
WESLACO        SUNNY     78  72  83 N3        29.94R
FALFURRIAS     MOSUNNY   71  67  86 N3        29.96R
EDINBURG       SUNNY     79  73  82 N3        29.95R
$$


USA.gov is the U.S. government's official web portal to all federal, state and local government web resources and services.